I1SXT-5 Weather Reports


time (UTC)temp
F
wind
direction
speed
knots
gust
knots
rain 1hr
in
rain 24hr
in
rain mn
in
humidity
%
barometer
mb
20260507224039 0 0.0 0.0 0.00 0.00 0.00 63 1014.4
20260507223538 0 0.0 0.0 0.00 0.00 0.00 62 1014.4
20260507223037 0 0.0 0.0 0.00 0.00 0.00 62 1014.3
20260507222535 0 0.0 0.0 0.00 0.00 0.00 63 1014.3
20260507222034 0 0.0 0.0 0.00 0.00 0.00 62 1014.3
20260507221533 0 0.0 0.0 0.00 0.00 0.00 63 1014.2
20260507221032 0 0.0 0.0 0.00 0.00 0.00 64 1014.1
20260507220530 0 0.0 0.0 0.00 0.00 0.00 62 1014.1
20260507220029 0 0.0 0.0 0.00 0.00 0.00 62 1014.1
20260507215528 0 0.0 0.0 0.00 0.00 0.00 64 1014.2
20260507215027 0 0.0 0.0 0.00 0.00 0.00 64 1014.2
20260507214526 0 0.0 0.0 0.00 0.00 0.00 63 1014.1
20260507214024 0 0.0 0.0 0.00 0.00 0.00 62 1014.0
20260507213523 0 0.0 0.0 0.00 0.00 0.00 63 1014.1
20260507213022 0 0.0 0.0 0.00 0.00 0.00 63 1014.1
20260507212521 0 0.0 0.0 0.00 0.00 0.00 65 1014.1
20260507212019 0 0.0 0.0 0.00 0.00 0.00 66 1014.1
20260507211518 0 0.0 0.0 0.00 0.00 0.00 66 1014.1
20260507211017 0 0.0 0.0 0.00 0.00 0.00 65 1014.0
20260507210516 0 0.0 0.0 0.00 0.00 0.00 64 1014.0
20260507210014 0 0.0 0.0 0.00 0.00 0.00 66 1014.0
20260507205513 0 0.0 0.0 0.00 0.00 0.00 64 1014.0
20260507205012 0 0.0 0.0 0.00 0.00 0.00 63 1014.0
20260507204511 0 0.0 0.0 0.00 0.00 0.00 63 1014.0
20260507204009 0 0.0 0.0 0.00 0.00 0.00 64 1014.0
20260507203508 0 0.0 0.0 0.00 0.00 0.00 62 1014.0
20260507203007 0 0.0 0.0 0.00 0.00 0.00 61 1014.2
20260507202506 0 0.0 0.0 0.00 0.00 0.00 61 1014.1
20260507202005 0 0.0 0.0 0.00 0.00 0.00 61 1013.9
20260507201503 0 0.0 0.0 0.00 0.00 0.00 62 1013.9
20260507201002 0 0.0 0.0 0.00 0.00 0.00 63 1013.8
20260507200501 0 0.0 0.0 0.00 0.00 0.00 62 1013.7
20260507200000 0 0.0 0.0 0.00 0.00 0.00 61 1013.6
20260507195458 0 0.0 0.0 0.00 0.00 0.00 62 1013.6
20260507194957 0 0.0 0.0 0.00 0.00 0.00 61 1013.6
20260507194456 0 0.0 0.0 0.00 0.00 0.00 62 1013.5
20260507193955 0 0.0 0.0 0.00 0.00 0.00 63 1013.6
20260507193453 0 0.0 0.0 0.00 0.00 0.00 62 1013.5
20260507192952 0 0.0 0.0 0.00 0.00 0.00 62 1013.5
20260507192451 0 0.0 0.0 0.00 0.00 0.00 59 1013.4
20260507191950 0 0.0 0.0 0.00 0.00 0.00 59 1013.4
20260507191449 0 0.0 0.0 0.00 0.00 0.00 59 1013.4
20260507190947 0 0.0 0.0 0.00 0.00 0.00 60 1013.4
20260507190446 0 0.0 0.0 0.00 0.00 0.00 58 1013.3
20260507185945 0 0.0 0.0 0.00 0.00 0.00 57 1013.3
20260507185444 0 0.0 0.0 0.00 0.00 0.00 58 1013.3
20260507184942 0 0.0 0.0 0.00 0.00 0.00 58 1013.2
20260507184441 0 0.0 0.0 0.00 0.00 0.00 57 1013.2
20260507183940 0 0.0 0.0 0.00 0.00 0.00 58 1013.2
20260507183439 0 0.0 0.0 0.00 0.00 0.00 58 1013.3
20260507182937 0 0.0 0.0 0.00 0.00 0.00 58 1013.5
20260507182436 0 0.0 0.0 0.00 0.00 0.00 57 1013.5
20260507181935 0 0.0 0.0 0.00 0.00 0.00 57 1013.3
20260507181434 0 0.0 0.0 0.00 0.00 0.00 55 1013.2
20260507180933 0 0.0 0.0 0.00 0.00 0.00 54 1013.3
20260507180431 0 0.0 0.0 0.00 0.00 0.00 54 1013.4
20260507175930 0 0.0 0.0 0.00 0.00 0.00 52 1013.4
20260507175429 0 0.0 0.0 0.00 0.00 0.00 53 1013.3
20260507174928 0 0.0 0.0 0.00 0.00 0.00 52 1013.3
20260507174426 0 0.0 0.0 0.00 0.00 0.00 50 1013.4
20260507173925 0 0.0 0.0 0.00 0.00 0.00 48 1013.4
20260507173424 0 0.0 0.0 0.00 0.00 0.00 44 1013.3
20260507172929 0 0.0 0.0 0.00 0.00 0.00 44 1013.3
20260507172428 0 0.0 0.0 0.00 0.00 0.00 40 1013.3
20260507171926 0 0.0 0.0 0.00 0.00 0.00 40 1013.2
20260507171425 0 0.0 0.0 0.00 0.00 0.00 40 1013.2
20260507170924 0 0.0 0.0 0.00 0.00 0.00 41 1013.1
20260507170422 0 0.0 0.0 0.00 0.00 0.00 41 1013.2
20260507165921 0 0.0 0.0 0.00 0.00 0.00 41 1013.2
20260507165420 0 0.0 0.0 0.00 0.00 0.00 42 1013.1
20260507164919 0 0.0 0.0 0.00 0.00 0.00 42 1013.0
20260507164417 0 0.0 0.0 0.00 0.00 0.00 43 1013.0
20260507163916 0 0.0 0.0 0.00 0.00 0.00 44 1013.1
20260507163415 0 0.0 0.0 0.00 0.00 0.00 42 1013.0
20260507162914 0 0.0 0.0 0.00 0.00 0.00 44 1013.1
20260507162413 0 0.0 0.0 0.00 0.00 0.00 45 1013.2
20260507161911 0 0.0 0.0 0.00 0.00 0.00 45 1013.2
20260507160909 0 0.0 0.0 0.00 0.00 0.00 46 1013.2
20260507160408 0 0.0 0.0 0.00 0.00 0.00 45 1013.2
20260507155906 0 0.0 0.0 0.00 0.00 0.00 44 1013.2
20260507154904 0 0.0 0.0 0.00 0.00 0.00 50 1013.3
20260507154403 0 0.0 0.0 0.00 0.00 0.00 50 1013.4
20260507153400 0 0.0 0.0 0.00 0.00 0.00 48 1013.5
20260507152900 0 0.0 0.0 0.00 0.00 0.00 49 1013.4
20260507152358 0 0.0 0.0 0.00 0.00 0.00 48 1013.4
20260507151857 0 0.0 0.0 0.00 0.00 0.00 47 1013.4
20260507151355 0 0.0 0.0 0.00 0.00 0.00 47 1013.4
20260507150854 0 0.0 0.0 0.00 0.00 0.00 47 1013.4
20260507145852 0 0.0 0.0 0.00 0.00 0.00 48 1013.3
20260507145351 0 0.0 0.0 0.00 0.00 0.00 50 1013.3
20260507144849 0 0.0 0.0 0.00 0.00 0.00 48 1013.4
20260507144348 0 0.0 0.0 0.00 0.00 0.00 47 1013.5
20260507143847 0 0.0 0.0 0.00 0.00 0.00 48 1013.5
20260507143345 0 0.0 0.0 0.00 0.00 0.00 48 1013.5
20260507142844 0 0.0 0.0 0.00 0.00 0.00 48 1013.6
20260507142343 0 0.0 0.0 0.00 0.00 0.00 47 1013.6
20260507141842 0 0.0 0.0 0.00 0.00 0.00 47 1013.5
20260507141341 0 0.0 0.0 0.00 0.00 0.00 48 1013.6
20260507140840 0 0.0 0.0 0.00 0.00 0.00 48 1013.7
20260507140338 0 0.0 0.0 0.00 0.00 0.00 49 1013.8
20260507135837 0 0.0 0.0 0.00 0.00 0.00 48 1013.7
20260507135336 0 0.0 0.0 0.00 0.00 0.00 48 1013.7
20260507134834 0 0.0 0.0 0.00 0.00 0.00 50 1013.8
20260507134333 0 0.0 0.0 0.00 0.00 0.00 48 1013.7
20260507133832 0 0.0 0.0 0.00 0.00 0.00 49 1013.7
20260507133331 0 0.0 0.0 0.00 0.00 0.00 47 1013.8
20260507132829 0 0.0 0.0 0.00 0.00 0.00 49 1013.7
20260507131827 0 0.0 0.0 0.00 0.00 0.00 49 1013.8
20260507131326 0 0.0 0.0 0.00 0.00 0.00 51 1013.8
20260507130323 0 0.0 0.0 0.00 0.00 0.00 49 1013.8
20260507125822 0 0.0 0.0 0.00 0.00 0.00 49 1013.7
20260507125321 0 0.0 0.0 0.00 0.00 0.00 50 1013.7
20260507124820 0 0.0 0.0 0.00 0.00 0.00 49 1013.8
20260507124318 0 0.0 0.0 0.00 0.00 0.00 49 1013.7
20260507123817 0 0.0 0.0 0.00 0.00 0.00 48 1013.8
20260507123316 0 0.0 0.0 0.00 0.00 0.00 49 1013.7
20260507122815 0 0.0 0.0 0.00 0.00 0.00 48 1013.6
20260507122314 0 0.0 0.0 0.00 0.00 0.00 47 1013.6
20260507121812 0 0.0 0.0 0.00 0.00 0.00 46 1013.5
20260507121311 0 0.0 0.0 0.00 0.00 0.00 49 1013.5
20260507120810 0 0.0 0.0 0.00 0.00 0.00 47 1013.6
20260507120309 0 0.0 0.0 0.00 0.00 0.00 48 1013.6
20260507115807 0 0.0 0.0 0.00 0.00 0.00 48 1013.6
20260507114805 0 0.0 0.0 0.00 0.00 0.00 50 1013.7
20260507114304 0 0.0 0.0 0.00 0.00 0.00 51 1013.9
20260507113802 0 0.0 0.0 0.00 0.00 0.00 49 1013.9
20260507112259 0 0.0 0.0 0.00 0.00 0.00 49 1013.9
20260507111757 0 0.0 0.0 0.00 0.00 0.00 47 1014.0
20260507110755 0 0.0 0.0 0.00 0.00 0.00 47 1013.8
20260507110254 0 0.0 0.0 0.00 0.00 0.00 46 1013.8
20260507105753 0 0.0 0.0 0.00 0.00 0.00 50 1013.8
20260507105252 0 0.0 0.0 0.00 0.00 0.00 48 1013.7
20260507104249 0 0.0 0.0 0.00 0.00 0.00 50 1013.8
20260507103748 0 0.0 0.0 0.00 0.00 0.00 49 1013.8
20260507103246 0 0.0 0.0 0.00 0.00 0.00 49 1013.8
20260507102745 0 0.0 0.0 0.00 0.00 0.00 51 1013.9
20260507101242 0 0.0 0.0 0.00 0.00 0.00 50 1013.9
20260507100740 0 0.0 0.0 0.00 0.00 0.00 49 1013.8
20260507100239 0 0.0 0.0 0.00 0.00 0.00 48 1013.9
20260507095738 0 0.0 0.0 0.00 0.00 0.00 48 1014.0
20260507095237 0 0.0 0.0 0.00 0.00 0.00 47 1013.8
20260507094736 0 0.0 0.0 0.00 0.00 0.00 47 1013.8
20260507094234 0 0.0 0.0 0.00 0.00 0.00 48 1013.8
20260507093733 0 0.0 0.0 0.00 0.00 0.00 47 1013.9
20260507093232 0 0.0 0.0 0.00 0.00 0.00 47 1013.9
20260507092730 0 0.0 0.0 0.00 0.00 0.00 46 1013.9
20260507092229 0 0.0 0.0 0.00 0.00 0.00 47 1013.9
20260507091728 0 0.0 0.0 0.00 0.00 0.00 46 1013.9
20260507091227 0 0.0 0.0 0.00 0.00 0.00 46 1013.9
20260507090725 0 0.0 0.0 0.00 0.00 0.00 46 1013.8
20260507090224 0 0.0 0.0 0.00 0.00 0.00 48 1013.8
20260507085723 0 0.0 0.0 0.00 0.00 0.00 48 1013.8
20260507085222 0 0.0 0.0 0.00 0.00 0.00 47 1013.8
20260507084219 0 0.0 0.0 0.00 0.00 0.00 48 1013.6
20260507083718 0 0.0 0.0 0.00 0.00 0.00 46 1013.5
20260507083217 0 0.0 0.0 0.00 0.00 0.00 46 1013.5
20260507082716 0 0.0 0.0 0.00 0.00 0.00 49 1013.5
20260507082215 0 0.0 0.0 0.00 0.00 0.00 49 1013.4
20260507081713 0 0.0 0.0 0.00 0.00 0.00 49 1013.4
20260507081212 0 0.0 0.0 0.00 0.00 0.00 49 1013.4
20260507080711 0 0.0 0.0 0.00 0.00 0.00 48 1013.4
20260507080210 0 0.0 0.0 0.00 0.00 0.00 49 1013.4
20260507075709 0 0.0 0.0 0.00 0.00 0.00 49 1013.3
20260507075207 0 0.0 0.0 0.00 0.00 0.00 49 1013.3
20260507074706 0 0.0 0.0 0.00 0.00 0.00 50 1013.3
20260507074205 0 0.0 0.0 0.00 0.00 0.00 51 1013.4
20260507073704 0 0.0 0.0 0.00 0.00 0.00 50 1013.3
20260507073202 0 0.0 0.0 0.00 0.00 0.00 49 1013.3
20260507072701 0 0.0 0.0 0.00 0.00 0.00 51 1013.2
20260507072200 0 0.0 0.0 0.00 0.00 0.00 51 1013.2
20260507071658 0 0.0 0.0 0.00 0.00 0.00 51 1013.2
20260507071157 0 0.0 0.0 0.00 0.00 0.00 51 1013.2
20260507070656 0 0.0 0.0 0.00 0.00 0.00 52 1013.2
20260507070155 0 0.0 0.0 0.00 0.00 0.00 50 1013.2
20260507065654 0 0.0 0.0 0.00 0.00 0.00 50 1013.2
20260507065152 0 0.0 0.0 0.00 0.00 0.00 51 1013.1
20260507064651 0 0.0 0.0 0.00 0.00 0.00 51 1013.1
20260507064150 0 0.0 0.0 0.00 0.00 0.00 52 1013.1
20260507063649 0 0.0 0.0 0.00 0.00 0.00 54 1013.0
20260507063148 0 0.0 0.0 0.00 0.00 0.00 55 1013.0
20260507062646 0 0.0 0.0 0.00 0.00 0.00 56 1013.0
20260507061644 0 0.0 0.0 0.00 0.00 0.00 55 1012.9
20260507061143 0 0.0 0.0 0.00 0.00 0.00 55 1012.9
20260507060641 0 0.0 0.0 0.00 0.00 0.00 50 1012.8
20260507060140 0 0.0 0.0 0.00 0.00 0.00 50 1012.8
20260507055639 0 0.0 0.0 0.00 0.00 0.00 45 1012.8
20260507055137 0 0.0 0.0 0.00 0.00 0.00 48 1012.9
20260507054636 0 0.0 0.0 0.00 0.00 0.00 53 1012.9
20260507054135 0 0.0 0.0 0.00 0.00 0.00 54 1012.8
20260507053634 0 0.0 0.0 0.00 0.00 0.00 53 1012.7
20260507053133 0 0.0 0.0 0.00 0.00 0.00 61 1012.7
20260507052631 0 0.0 0.0 0.00 0.00 0.00 62 1012.6
20260507052130 0 0.0 0.0 0.00 0.00 0.00 63 1012.6
20260507051629 0 0.0 0.0 0.00 0.00 0.00 62 1012.6
20260507050627 0 0.0 0.0 0.00 0.00 0.00 61 1012.6
20260507050125 0 0.0 0.0 0.00 0.00 0.00 62 1012.4
20260507045624 0 0.0 0.0 0.00 0.00 0.00 62 1012.5
20260507045123 0 0.0 0.0 0.00 0.00 0.00 63 1012.4
20260507044621 0 0.0 0.0 0.00 0.00 0.00 64 1012.4
20260507044120 0 0.0 0.0 0.00 0.00 0.00 66 1012.3
20260507043619 0 0.0 0.0 0.00 0.00 0.00 66 1012.3
20260507043118 0 0.0 0.0 0.00 0.00 0.00 65 1012.3
20260507042617 0 0.0 0.0 0.00 0.00 0.00 64 1012.3
20260507042115 0 0.0 0.0 0.00 0.00 0.00 65 1012.3
20260507041113 0 0.0 0.0 0.00 0.00 0.00 67 1012.3
20260507040612 0 0.0 0.0 0.00 0.00 0.00 66 1012.2
20260507040110 0 0.0 0.0 0.00 0.00 0.00 66 1012.1
20260507035609 0 0.0 0.0 0.00 0.00 0.00 65 1012.1
20260507035108 0 0.0 0.0 0.00 0.00 0.00 65 1012.2
20260507034607 0 0.0 0.0 0.00 0.00 0.00 65 1012.1
20260507034106 0 0.0 0.0 0.00 0.00 0.00 65 1012.2
20260507033604 0 0.0 0.0 0.00 0.00 0.00 66 1012.1
20260507033103 0 0.0 0.0 0.00 0.00 0.00 67 1012.2
20260507032602 0 0.0 0.0 0.00 0.00 0.00 67 1012.1
20260507032101 0 0.0 0.0 0.00 0.00 0.00 64 1012.1
20260507031559 0 0.0 0.0 0.00 0.00 0.00 65 1012.1
20260507031058 0 0.0 0.0 0.00 0.00 0.00 65 1012.1
20260507030557 0 0.0 0.0 0.00 0.00 0.00 66 1012.1
20260507030056 0 0.0 0.0 0.00 0.00 0.00 66 1012.1
20260507025554 0 0.0 0.0 0.00 0.00 0.00 67 1012.1
20260507025053 0 0.0 0.0 0.00 0.00 0.00 65 1012.1
20260507024051 0 0.0 0.0 0.00 0.00 0.00 66 1012.1
20260507023550 0 0.0 0.0 0.00 0.00 0.00 67 1012.2
20260507023048 0 0.0 0.0 0.00 0.00 0.00 66 1012.1
20260507022046 0 0.0 0.0 0.00 0.00 0.00 68 1012.1
20260507021043 0 0.0 0.0 0.00 0.00 0.00 67 1012.1
20260507020542 0 0.0 0.0 0.00 0.00 0.00 65 1012.1
20260507015039 0 0.0 0.0 0.00 0.00 0.00 64 1012.2
20260507014537 0 0.0 0.0 0.00 0.00 0.00 64 1012.1
20260507014036 0 0.0 0.0 0.00 0.00 0.00 64 1012.1
20260507013535 0 0.0 0.0 0.00 0.00 0.00 65 1012.1
20260507013034 0 0.0 0.0 0.00 0.00 0.00 66 1012.1
20260507012532 0 0.0 0.0 0.00 0.00 0.00 66 1012.1
20260507012032 0 0.0 0.0 0.00 0.00 0.00 64 1012.1
20260507011530 0 0.0 0.0 0.00 0.00 0.00 65 1012.1
20260507011029 0 0.0 0.0 0.00 0.00 0.00 65 1012.1
20260507010527 0 0.0 0.0 0.00 0.00 0.00 64 1012.1
20260507010026 0 0.0 0.0 0.00 0.00 0.00 64 1012.2
20260507005525 0 0.0 0.0 0.00 0.00 0.00 64 1012.3
20260507005024 0 0.0 0.0 0.00 0.00 0.00 65 1012.3
20260507004523 0 0.0 0.0 0.00 0.00 0.00 65 1012.3
20260507004021 0 0.0 0.0 0.00 0.00 0.00 64 1012.3
20260507003520 0 0.0 0.0 0.00 0.00 0.00 64 1012.2
20260507003019 0 0.0 0.0 0.00 0.00 0.00 64 1012.2
20260507002517 0 0.0 0.0 0.00 0.00 0.00 64 1012.2
20260507002016 0 0.0 0.0 0.00 0.00 0.00 64 1012.2
20260507001515 0 0.0 0.0 0.00 0.00 0.00 64 1012.2
20260507001014 0 0.0 0.0 0.00 0.00 0.00 63 1012.2
20260507000513 0 0.0 0.0 0.00 0.00 0.00 63 1012.2
20260507000011 0 0.0 0.0 0.00 0.00 0.00 64 1012.2
20260506235510 0 0.0 0.0 0.00 0.00 0.00 63 1012.3
20260506235009 0 0.0 0.0 0.00 0.00 0.00 63 1012.3
20260506234508 0 0.0 0.0 0.00 0.00 0.00 63 1012.3
20260506234006 0 0.0 0.0 0.00 0.00 0.00 63 1012.4
20260506233505 0 0.0 0.0 0.00 0.00 0.00 64 1012.4
20260506233004 0 0.0 0.0 0.00 0.00 0.00 64 1012.4
20260506232503 0 0.0 0.0 0.00 0.00 0.00 64 1012.4
20260506232002 0 0.0 0.0 0.00 0.00 0.00 65 1012.4
20260506231500 0 0.0 0.0 0.00 0.00 0.00 67 1012.4
20260506230959 0 0.0 0.0 0.00 0.00 0.00 65 1012.4
20260506230458 0 0.0 0.0 0.00 0.00 0.00 63 1012.4
20260506225957 0 0.0 0.0 0.00 0.00 0.00 63 1012.4
20260506225455 0 0.0 0.0 0.00 0.00 0.00 63 1012.4
20260506224954 0 0.0 0.0 0.00 0.00 0.00 62 1012.3
20260506224453 0 0.0 0.0 0.00 0.00 0.00 63 1012.4